Regional Weather Roundup
Issued by NWS

Home | Current Version | Previous Version | Text Only | Print | Product List | Glossary On
Versions: 1 2 3 4 5 6 7 8 9 10 11 12 13 14 15 16 17 18 19 20 21 22 23 24 25 26 27
000
ASUS45 KBOU 192010
RWRCO

WEATHER ROUNDUP FOR COLORADO
NATIONAL WEATHER SERVICE DENVER/BOULDER CO
100 PM MST SUN NOV 19 2017

NOTE: "FAIR" INDICATES FEW OR NO CLOUDS BELOW 12000 FEET WITH NO
SIGNIFICANT WEATHER AND/OR OBSTRUCTIONS TO VISIBILITY.

COZ001>005-013-030-031-192100-
...NORTHWEST COLORADO...

CITY           SKY/WX    TMP DP  RH WIND       PRES   REMARKS
CRAIG          FAIR      33  19  56 CALM      30.22F
HAYDEN         FAIR      35  20  54 CALM      30.23F
MEEKER         FAIR      35  22  58 CALM      30.22F
RABBIT EARS PA FAIR      30  18  59 W5        30.23F WCI  25
STEAMBOAT SPGS FAIR      34  20  56 CALM      30.22F
WALDEN         FAIR      34  16  47 SW13      30.20F WCI  25
$$

COZ006>008-011-192100-
...WEST CENTRAL VALLEYS...

CITY           SKY/WX    TMP DP  RH WIND       PRES   REMARKS
GRAND JUNCTION FAIR      43  17  35 VRB3      30.29F
MONTROSE       FAIR      41  19  41 NW6       30.29F
EAGLE          FAIR      34  15  46 CALM      30.28F
RIFLE          FAIR      38  17  42 CALM      30.28F
DELTA          FAIR      44  16  31 W6        30.28F
NUCLA          FAIR      41  12  30 NW6       30.31F
$$

COZ017>023-064>068-192100-
...SOUTHWEST COLORADO...

CITY           SKY/WX    TMP DP  RH WIND       PRES   REMARKS
DURANGO        FAIR      47  13  25 SW7       30.24F
CORTEZ         FAIR      45  13  27 S6        30.26F
PAGOSA SPRINGS FAIR      46   0  14 W3        30.25F
TELLURIDE      FAIR      44  -3  14 W7        30.29F
WOLF CREEK PAS FAIR      32   5  32 SW9       30.37F WCI  24
$$

COZ009-010-012-014-032>034-037-058>063-192100-
...CENTRAL COLORADO...

CITY           SKY/WX    TMP DP  RH WIND       PRES   REMARKS
ASPEN          FAIR      35  22  58 NW7       30.23F WCI  29
BUENA VISTA    FAIR      41   6  23 SE5       30.20F
COPPER MTN     FAIR      30  -4  22 MISG      30.28F
BERTHOUD PASS  FAIR      21  10  63 W26G37    30.25S WCI   4
COTTONWOOD PAS FAIR      43  -6  13 NW5       30.24F
GUNNISON       FAIR      29  15  56 CALM      30.32F
KREMMLING      FAIR      39  16  38 CALM      30.25F
LEADVILLE      FAIR      36   5  27 N7        30.23F
MONARCH PASS   FAIR      25  -4  28 W29G36    30.39F WCI   8
SALIDA         FAIR      50  -1  12 SW10G17   30.27F
SUNLIGHT       FAIR      32   5  32 SW10G18   30.32F WCI  24
WILKERSON PASS FAIR      30   1  29 W12G20    30.25F WCI  21
$$

COZ069>075-192100-
...SAN LUIS VALLEY/SANGRE DE CRISTO MOUNTAINS...

CITY           SKY/WX    TMP DP  RH WIND       PRES   REMARKS
ALAMOSA        FAIR      42  13  30 CALM      30.25F
DEL NORTE      FAIR      43   8  24 E3        30.25F
LA VETA PASS   FAIR      36   5  27 SW31G41     N/A
SAGUACHE       FAIR      43   5  21 SE3       30.25F
$$

COZ035-036-038>040-192100-
...NORTHERN COLORADO FRONT RANGE...

CITY           SKY/WX    TMP DP  RH WIND       PRES   REMARKS
DENVER INTL AP PTSUNNY   60   4  10 SW9       30.04F
DMNS CITY PARK   N/A     62   6  10 E7G14     30.03F
AURORA         PTSUNNY   60   7  12 S8        30.04F
FRONT RANGE AP PTSUNNY   59  16  18 SW8       30.05F
ERIE MUNI ARPT FAIR      57  21  24 NE5       30.08F
BOULDER MUN AP FAIR      54  23  30 N3        30.04F
CENTENNIAL     PTSUNNY   58   9  14 SW10      30.04F
BROOMFIELD     PTSUNNY   59   9  13 W18G25    30.05F
FORT COLLINS   FAIR      53  19  26 S7        30.04F
LONGMONT       FAIR      54  18  24 S3        30.05F
$$

COZ041-046-047-076>085-087-088-192100-
...PIKES PEAK/PALMER DIVIDE AND SOUTHERN FOOTHILLS...

CITY           SKY/WX    TMP DP  RH WIND       PRES   REMARKS
COLO. SPRINGS  PTSUNNY   56   5  13 SE3       30.09F
A. F. ACADEMY  FAIR      56  -2   9 W16G22    30.08F
SCHRIEVER AFB  FAIR      54   2  12 SW5       30.09F
CHEYENNE MTN   FAIR      54   8  15 E3        30.05F
ELLICOTT       NOT AVBL
FALCON         FAIR      55   6  13 SW5       30.10F
FORT CARSON    FAIR      57  13  17 E5        30.06F
LIMON          FAIR      59   1   9 S9        30.05F
MONUMENT HILL  FAIR      54   5  14 SW5       30.10F
CANON CITY     FAIR      61   5  11 W9        30.07F
WALSENBURG     FAIR      63  10  13 SW10G21   30.09F
TRINIDAD       FAIR      59   7  12 SE7       30.09F
$$

COZ042>045-048>051-090-091-192100-
...NORTHEAST COLORADO...

CITY           SKY/WX    TMP DP  RH WIND       PRES   REMARKS
GREELEY ARPT   FAIR      52  21  29 S3        30.04F
AKRON          FAIR      57  18  21 SW12      30.03F
BURLINGTON     FAIR      58  16  19 SW15      30.06F
WRAY           NOT AVBL
YUMA           FAIR      57  19  23 SW10      30.02F
STERLING       FAIR      50  25  37 S8        30.02F
HOLYOKE        FAIR      61  16  17 W8        30.02F
FORT MORGAN    FAIR      55  19  24 W8        30.03F
$$

COZ086-089-092>099-192100-
...SOUTHEAST COLORADO...

CITY           SKY/WX    TMP DP  RH WIND       PRES   REMARKS
PUEBLO         FAIR      60  18  19 SW6       30.05F
LA JUNTA       FAIR      59  19  21 VRB3      30.06F
LAMAR          FAIR      58  17  20 NW7       30.06F
SPRINGFIELD      N/A     61  14  16 SW9G17    30.08F
$$




USA.gov is the U.S. government's official web portal to all federal, state and local government web resources and services.